Temp
8 8 8 8 7 7 7 7 7 6 6 6 6 6 6 6 6 6 6 6 6 6 6 6 6 6 6 6 5 5 5 5 5
8 8 7 7 7 7 7 6 6 6 6 6 6 6 6 6 6 6 6 6 6 6 6 6 6 6 5 5 5 5 5 5 5
8 7 7 7 7 6 6 6 6 6 6 5 5 5 5 5 6 6 6 6 6 6 6 6 6 5 5 5 5 5 5 5 5
7 7 7 6 6 6 6 6 5 5 5 5 5 5 6 6 6 6 6 5 5 5 5 6 6 5 5 5 5 5 5 4 4
7 7 7 6 6 6 6 6 5 5 5 5 5 6 6 6 6 5 5 5 5 5 5 5 5 5 5 5 5 4 4 4 4
7 7 6 6 6 6 5 5 5 5 5 5 5 5 5 5 5 5 5 5 5 5 5 5 5 5 5 5 5 4 4 4 4
7 6 6 6 5 5 5 5 5 5 5 5 5 5 6 6 6 6 5 5 5 5 5 5 5 5 5 5 4 4 4 4 3
7 6 6 6 6 5 5 5 5 5 5 5 5 5 5 5 5 5 5 5 5 5 5 5 5 5 5 5 4 4 3 3 3
6 6 6 6 6 6 6 6 6 6 5 5 5 5 5 6 5 5 5 5 5 5 4 4 4 4 4 5 4 3 3 3 3
6 6 6 6 6 6 6 6 6 6 6 6 5 5 5 5 5 5 5 5 5 5 4 4 4 4 4 4 4 3 3 3 2
6 6 6 6 6 6 6 6 6 6 6 6 6 6 5 5 5 5 5 5 5 4 4 4 4 4 3 4 4 3 3 2 2
6 6 6 6 6 6 6 6 6 6 6 6 6 6 6 5 5 5 5 5 5 4 4 4 3 4 4 4 3 3 3 2 2
6 6 6 6 6 6 6 6 6 6 6 6 6 5 5 5 5 5 5 5 5 4 4 4 3 3 4 3 3 3 3 3 2
6 6 6 6 6 6 6 6 6 6 6 6 5 5 5 5 4 4 4 4 4 4 4 4 3 4 3 3 3 2 2 2 2
6 6 6 6 6 6 6 6 6 6 6 6 5 5 4 4 4 4 4 4 4 3 3 3 3 3 3 3 3 2 2 2 1
6 6 6 6 6 6 6 6 5 5 5 5 5 4 3 3 3 1 3 3 3 3 3 3 3 3 3 3 2 2 2 2 2
6 6 6 6 6 6 5 5 5 5 4 4 3 3 3 3 2 1 1 2 2 2 2 3 2 2 2 2 2 2 2 2 2
5 5 5 5 5 5 4 4 4 4 3 2 3 4 4 3 3 2 2 2 2 2 2 2 1 1 1 1 1 1 2 2 2
5 4 5 4 4 4 3 3 3 2 3 3 3 3 2 2 2 2 3 2 2 2 2 2 2 1 2 1 0 1 1 2 2
4 3 4 4 4 3 3 3 4 4 3 3 3 2 2 2 2 2 3 2 2 2 2 2 1 1 1 1 0 1 2 1 1
Height
3191 3192 3194 3195 3197 3198 3199 3200 3201 3202 3203 3203 3203 3203 3203 3203 3203 3203 3203 3202 3201 3200 3200 3199 3198 3197 3196 3195 3194 3193 3191 3190 3189
3191 3193 3195 3196 3197 3199 3199 3201 3202 3203 3204 3204 3204 3204 3204 3204 3204 3204 3204 3203 3202 3202 3201 3200 3199 3198 3197 3195 3194 3193 3192 3190 3189
3191 3193 3195 3197 3198 3199 3201 3202 3203 3204 3205 3205 3205 3205 3205 3205 3205 3205 3205 3204 3204 3203 3202 3201 3200 3198 3197 3196 3195 3193 3192 3191 3189
3191 3193 3195 3197 3199 3201 3202 3204 3204 3205 3206 3206 3207 3207 3207 3207 3207 3207 3206 3205 3204 3204 3203 3202 3201 3199 3198 3196 3195 3193 3192 3191 3189
3192 3194 3196 3199 3201 3203 3204 3205 3206 3207 3207 3207 3207 3208 3207 3208 3208 3208 3207 3206 3206 3205 3204 3203 3201 3199 3197 3196 3195 3193 3191 3190 3189
3192 3195 3197 3199 3202 3204 3205 3206 3207 3208 3208 3208 3208 3208 3209 3209 3209 3208 3208 3207 3207 3206 3205 3203 3201 3199 3197 3196 3195 3193 3191 3190 3188
3192 3195 3197 3200 3202 3204 3206 3207 3208 3208 3209 3209 3209 3209 3209 3210 3209 3209 3208 3208 3207 3206 3205 3203 3202 3200 3198 3196 3194 3192 3191 3189 3188
3192 3195 3198 3200 3203 3205 3207 3208 3209 3209 3210 3210 3210 3209 3209 3209 3209 3209 3208 3207 3207 3206 3205 3203 3202 3200 3198 3196 3194 3192 3190 3189 3188
3192 3195 3198 3200 3202 3205 3207 3208 3209 3209 3210 3210 3210 3210 3210 3209 3209 3208 3207 3206 3205 3205 3203 3202 3200 3199 3197 3195 3193 3192 3190 3189 3187
3192 3195 3198 3200 3202 3204 3206 3207 3208 3209 3209 3209 3209 3209 3209 3209 3209 3208 3207 3206 3205 3205 3203 3201 3199 3197 3196 3194 3192 3191 3189 3188 3187
3192 3195 3198 3200 3202 3203 3205 3206 3207 3208 3208 3208 3208 3208 3208 3208 3208 3207 3207 3206 3205 3203 3202 3200 3198 3196 3195 3193 3192 3189 3188 3187 3185
3191 3195 3198 3200 3201 3203 3204 3205 3206 3206 3207 3207 3207 3207 3206 3205 3205 3205 3204 3204 3203 3202 3200 3199 3197 3195 3194 3192 3191 3188 3186 3184 3183
3188 3193 3195 3198 3200 3201 3203 3203 3204 3205 3205 3205 3205 3204 3204 3203 3203 3203 3202 3201 3201 3200 3198 3197 3196 3194 3193 3190 3188 3186 3184 3183 3181
3187 3190 3193 3195 3197 3199 3200 3201 3202 3202 3202 3202 3202 3201 3200 3200 3200 3200 3199 3199 3198 3197 3196 3195 3192 3191 3191 3188 3186 3184 3182 3181 3178
3183 3187 3190 3192 3195 3196 3198 3198 3198 3198 3199 3198 3198 3197 3197 3196 3196 3197 3195 3194 3194 3194 3193 3192 3190 3188 3187 3185 3183 3181 3179 3177 3176
3180 3184 3187 3189 3191 3192 3193 3193 3193 3193 3194 3195 3194 3194 3193 3191 3190 3190 3191 3190 3190 3189 3189 3188 3186 3184 3183 3183 3181 3178 3176 3174 3172
3176 3180 3182 3185 3187 3187 3187 3188 3188 3189 3190 3191 3191 3189 3188 3185 3184 3185 3184 3185 3185 3184 3184 3183 3182 3179 3178 3178 3178 3176 3174 3171 3169
3172 3175 3177 3179 3180 3182 3183 3183 3184 3185 3187 3187 3187 3183 3180 3179 3179 3179 3179 3178 3178 3179 3177 3177 3176 3175 3174 3173 3172 3170 3169 3167 3163
3166 3169 3171 3173 3176 3176 3177 3179 3178 3178 3180 3178 3178 3176 3175 3172 3170 3172 3172 3173 3171 3171 3170 3170 3169 3168 3166 3166 3165 3166 3164 3163 3161
3160 3164 3167 3169 3170 3169 3167 3171 3171 3173 3174 3172 3172 3171 3168 3167 3166 3165 3165 3165 3165 3165 3163 3162 3161 3161 3160 3158 3158 3159 3159 3157 3155
Wind_Speed
18 16 15 15 14 13 13 14 15 17 17 18 18 16 16 16 15 14 12 12 12 12 12 11 11 11 11 11 11 11 11 11 11
18 16 16 16 14 15 16 17 18 18 18 17 16 16 15 14 14 13 12 11 11 11 11 11 11 11 11 11 10 10 9 9 9
18 18 17 16 17 18 19 19 18 17 16 15 14 14 14 13 12 12 12 12 12 12 12 12 12 12 12 12 11 10 9 8 8
20 19 18 19 21 21 19 18 17 16 15 14 13 13 12 12 11 12 13 13 13 13 13 13 12 12 11 11 11 10 10 9 9
20 20 20 22 21 20 20 19 17 16 15 13 12 11 11 10 10 10 12 12 12 13 13 12 13 13 12 12 11 10 9 8 8
22 22 23 22 22 20 19 17 16 14 13 12 11 10 9 9 9 9 10 11 12 12 13 14 16 16 15 14 12 10 9 9 8
24 25 24 23 22 19 17 14 12 11 11 10 10 9 8 8 8 8 9 10 11 12 13 15 16 16 16 16 13 11 10 9 9
26 25 24 22 20 17 15 13 11 9 8 7 7 7 7 6 6 6 7 8 10 11 13 15 16 16 18 19 15 12 11 10 10
26 25 24 21 18 16 13 11 9 7 6 5 5 5 5 4 4 5 5 6 7 9 11 13 14 15 17 18 16 12 13 11 10
27 25 22 19 15 12 9 7 6 4 3 3 3 5 6 6 6 6 7 8 9 10 12 13 14 15 15 18 14 13 12 12 12
25 22 19 15 12 8 5 3 2 2 2 3 4 6 7 8 9 9 10 10 10 11 13 14 15 16 17 17 16 13 12 13 12
24 20 16 13 10 6 4 3 3 4 6 7 8 9 10 11 11 12 12 12 12 12 13 13 15 17 17 16 16 15 15 15 14
24 20 17 13 10 8 6 7 8 9 10 12 13 13 14 15 15 15 15 14 14 14 13 14 14 16 18 18 17 16 14 16 15
24 20 17 14 11 11 10 11 12 13 14 15 16 16 17 18 19 18 18 18 17 17 17 17 17 16 15 18 18 17 15 17 18
25 21 18 16 15 14 15 16 17 18 19 20 20 19 17 16 17 22 20 20 20 18 19 19 20 19 15 15 17 18 19 17 17
25 22 20 19 18 19 20 20 20 22 22 22 21 18 17 21 24 24 22 21 22 21 21 23 20 19 19 20 15 20 21 19 18
26 23 22 22 22 22 23 21 21 21 20 18 16 22 29 29 29 24 21 22 20 25 23 21 19 19 26 27 18 21 23 22 21
23 21 20 22 24 23 20 19 19 15 12 16 21 22 14 15 19 19 26 32 32 32 35 31 27 34 39 31 21 20 26 22 19
25 24 24 23 25 19 16 15 9 9 29 19 19 17 22 20 20 20 20 25 34 37 30 31 38 36 35 32 26 19 25 22 19
25 28 24 21 18 15 11 13 18 22 15 17 19 22 21 17 19 19 18 30 28 31 27 23 27 33 25 28 12 22 25 26 21
Wind_Direction
146 144 140 134 130 125 117 114 111 107 103 100 97 94 90 86 82 78 75 75 71 63 59 55 49 43 39 37 37 36 39 39 39
147 144 140 136 133 125 121 118 114 110 105 100 97 94 89 85 81 79 73 69 67 62 53 45 40 36 32 30 28 28 31 32 32
146 145 141 137 131 126 122 117 112 108 103 99 94 89 85 82 78 74 68 64 61 57 51 44 40 38 34 30 23 21 23 24 24
148 147 143 137 131 126 121 116 110 104 98 93 90 87 81 77 74 70 63 62 61 55 46 41 38 34 27 21 15 17 19 17 17
150 147 142 134 128 122 115 108 102 98 94 90 86 82 80 76 70 64 59 56 51 43 37 33 29 24 18 15 12 13 13 10 10
149 144 138 131 124 117 110 103 98 92 87 80 76 76 70 68 63 57 49 46 41 35 28 26 22 18 23 21 16 9 7 1 360
148 143 138 131 124 118 113 107 100 93 82 73 66 61 59 54 49 45 38 35 29 21 18 17 16 20 17 9 3 1 357 357 358
149 143 137 130 125 123 118 113 105 92 79 67 58 53 51 46 39 31 27 21 17 12 9 7 6 7 7 5 2 360 3 5 1
147 142 137 132 128 125 122 116 107 96 81 59 36 22 15 14 16 13 7 358 357 359 1 358 359 358 360 1 2 13 8 12 11
148 144 143 140 138 134 128 117 105 93 70 34 3 346 337 333 329 331 335 337 339 342 343 346 350 349 352 355 355 353 357 360 358
155 153 152 150 147 143 134 122 88 26 352 332 320 314 315 314 311 308 314 319 323 329 334 337 338 341 343 344 342 335 338 338 340
165 165 166 166 166 172 189 225 271 300 310 310 305 298 293 291 292 291 294 302 307 314 321 324 320 323 325 333 332 324 323 324 326
174 178 183 186 197 213 238 262 279 290 296 298 299 297 289 283 282 282 281 285 291 298 306 310 308 312 316 321 325 321 308 304 312
184 191 199 207 220 239 256 270 277 282 285 288 289 289 289 285 281 279 281 283 285 291 295 302 305 309 314 316 317 322 313 295 295
196 205 214 224 238 252 263 270 277 282 284 285 284 283 285 287 291 289 279 282 283 285 291 296 299 301 296 310 308 328 318 309 296
206 215 227 239 247 255 264 272 275 278 284 287 283 275 283 296 310 275 279 282 281 287 292 294 298 307 300 308 323 319 315 314 307
213 224 234 245 252 256 260 264 272 279 285 287 280 278 291 300 294 270 268 274 273 275 280 284 286 280 296 299 301 316 314 308 309
218 225 239 252 257 260 263 270 275 281 304 288 302 296 326 317 308 292 278 271 275 277 276 276 278 280 287 286 286 308 307 299 304
219 229 249 256 258 251 250 256 260 306 318 295 288 277 295 296 288 280 275 279 275 273 283 286 278 282 277 267 274 302 308 311 304
227 224 249 259 255 230 235 317 291 283 293 281 283 291 289 292 293 289 275 268 285 284 287 283 280 276 264 260 286 304 311 305 298